"���t","����","���ʗ�(uSv/h)","�ܓx","�o�x","�W��","counts"
"2023/11/22","18:58:00","0.047","N35.67921242","E139.76755918","104.4*","87"
"2023/11/22","18:59:00","0.028","N35.67837004","E139.76693647","42.0*","74"
"2023/11/22","19:00:00","0.041","N35.67050251","E139.75946666","29.7*","84"
"2023/11/22","19:01:00","0.042","N35.65893534","E139.7583816","38.8*","107"
"2023/11/22","19:02:00","0.030","N35.64671207","E139.75014386","43.7*","86"
"2023/11/22","19:03:00","0.046","N35.6374998","E139.74314575","40.9*","85"
"2023/11/22","19:04:00","0.043","N35.63165186","E139.74121775","42.3*","69"
"2023/11/22","19:05:00","0.054","N35.63165186","E139.74121775","42.3*","79"
"2023/11/22","19:06:00","0.064","N35.63165186","E139.74121775","42.3*","78"
"2023/11/22","19:07:00","0.022","N35.62483936","E139.73925849","14.9*","82"
"2023/11/22","19:08:00","0.056","N35.61384206","E139.72857008","48.8*","79"
"2023/11/22","19:09:00","0.004","N35.59993601","E139.72081305","62.0*","71"
"2023/11/22","19:10:00","0.037","N35.59130945","E139.70448509","65.2*","47"
"2023/11/22","19:11:00","0.021","N35.58303458","E139.675896","51.8*","69"
"2023/11/22","19:12:00","0.018","N35.57119456","E139.6642991","52.2*","72"
"2023/11/22","19:13:00","0.032","N35.55332799","E139.65458331","48.1*","88"
"2023/11/22","19:14:00","0.040","N35.52705098","E139.6364696","48.3*","65"
"2023/11/22","19:15:00","0.053","N35.51273533","E139.62443437","45.1*","85"
"2023/11/22","19:16:00","0.044","N35.506741","E139.61710021","53.2*","85"
"2023/11/22","19:17:00","0.033","N35.50642321","E139.61670924","44.6*","61"
"2023/11/22","19:18:00","0.022","N35.50520273","E139.61488319","42.8*","72"
"2023/11/22","19:19:00","0.043","N35.49534329","E139.60322617","52.8*","90"
"2023/11/22","19:20:00","0.048","N35.48139899","E139.57447078","65.5*","62"
"2023/11/22","19:21:00","0.009","N35.46211988","E139.53784148","88.9*","78"
"2023/11/22","19:22:00","0.043","N35.44249378","E139.49385667","92.1*","87"
"2023/11/22","19:23:00","0.082","N35.42412526","E139.44745393","76.8*","59"
"2023/11/22","19:24:00","0.068","N35.40371945","E139.40210783","59.8*","43"
"2023/11/22","19:25:00","0.029","N35.38214362","E139.3572238","51.9*","57"
"2023/11/22","19:26:00","0.050","N35.35494772","E139.31970347","49.9*","51"
"2023/11/22","19:27:00","0.058","N35.32845563","E139.29332264","71.2*","47"
"2023/11/22","19:28:00","0.040","N35.31017746","E139.25888904","72.0*","62"
"2023/11/22","19:29:00","0.020","N35.29695137","E139.21813929","71.5*","54"
"2023/11/22","19:30:00","0.027","N35.2777883","E139.17778797","57.5*","66"
"2023/11/22","19:31:00","0.017","N35.25226695","E139.15161052","59.2*","57"
"2023/11/22","19:32:00","0.023","N35.20987254","E139.13671459","50.4*","59"
"2023/11/22","19:33:00","0.028","N35.19471144","E139.13479444","60.3*","57"
"2023/11/22","19:34:00","0.024","N35.15212853","E139.10409983","84.4*","80"
"2023/11/22","19:35:00","0.031","N35.13979947","E139.09287078","84.6*","66"
"2023/11/22","19:36:00","0.064","N35.09928514","E139.06184174","122.8*","104"
"2023/11/22","19:37:00","0.039","N35.09928514","E139.06184174","122.8*","156"
"2023/11/22","19:38:00","0.077","N35.09928514","E139.06184174","122.8*","146"
"2023/11/22","19:39:00","0.089","N35.12332783","E138.93837457","115.3*","124"
"2023/11/22","19:40:00","0.037","N35.12537911","E138.90212751","95.6*","97"
"2023/11/22","19:41:00","0.078","N35.12377928","E138.8699269","74.8*","74"
"2023/11/22","19:42:00","0.012","N35.12702423","E138.83522167","67.8*","56"
"2023/11/22","19:43:00","0.018","N35.14382151","E138.80337401","63.8*","57"
"2023/11/22","19:44:00","0.048","N35.15514624","E138.76328072","60.2*","69"
"2023/11/22","19:45:00","0.025","N35.15232001","E138.71986467","57.8*","61"
"2023/11/22","19:46:00","0.037","N35.14395577","E138.67498431","49.4*","67"
"2023/11/22","19:47:00","0.017","N35.13816407","E138.63288411","58.3*","68"
"2023/11/22","19:48:00","0.013","N35.13468159","E138.60933243","57.7*","94"
"2023/11/22","19:49:00","0.031","N35.11073433","E138.5584302","66.8*","155"
"2023/11/22","19:50:00","0.023","N35.10329998","E138.5501265","77.7*","143"
"2023/11/22","19:51:00","0.017","N35.06484859","E138.51556581","50.2*","130"
"2023/11/22","19:52:00","0.066","N35.03436059","E138.48304814","49.5*","133"
"2023/11/22","19:53:00","0.052","N35.01224081","E138.45612656","59.5*","79"
"2023/11/22","19:54:00","0.045","N34.99467313","E138.42874581","61.2*","75"
"2023/11/22","19:55:00","0.076","N34.97721237","E138.40042746","64.0*","87"
"2023/11/22","19:56:00","0.064","N34.95602042","E138.37080365","62.9*","82"
"2023/11/22","19:57:00","0.012","N34.92405221","E138.3604025","63.7*","91"
"2023/11/22","19:58:00","0.012","N34.89396054","E138.33275394","48.2*","114"
"2023/11/22","19:59:00","0.019","N34.86719011","E138.3002293","46.7*","74"
"2023/11/22","20:00:00","0.042","N34.84334218","E138.26447058","46.0*","88"
"2023/11/22","20:01:00","0.037","N34.81893526","E138.22858989","58.8*","91"
"2023/11/22","20:02:00","0.039","N34.79918175","E138.19088007","68.2*","93"
"2023/11/22","20:03:00","0.065","N34.78704203","E138.14856728","95.5*","184"
"2023/11/22","20:04:00","0.056","N34.77506258","E138.10657949","84.7*","161"
"2023/11/22","20:05:00","0.067","N34.77127375","E138.06143947","85.2*","119"
"2023/11/22","20:06:00","0.043","N34.76995364","E138.0197903","63.8*","102"
"2023/11/22","20:07:00","0.044","N34.75801512","E137.97651971","64.3*","82"
"2023/11/22","20:08:00","0.054","N34.74088344","E137.93227572","45.1*","95"
"2023/11/22","20:09:00","0.051","N34.72120624","E137.88964585","42.4*","89"
"2023/11/22","20:10:00","0.026","N34.70498724","E137.84678308","43.7*","60"
"2023/11/22","20:11:00","0.032","N34.70616601","E137.79843591","53.3*","80"
"2023/11/22","20:12:00","0.026","N34.70770633","E137.75017432","42.6*","58"
"2023/11/22","20:13:00","0.032","N34.69240932","E137.71036788","45.9*","58"
"2023/11/22","20:14:00","0.014","N34.6923978","E137.66499395","41.7*","64"
"2023/11/22","20:15:00","0.047","N34.68682902","E137.61801942","40.1*","68"
"2023/11/22","20:16:00","0.033","N34.69456692","E137.57107821","32.2*","64"
"2023/11/22","20:17:00","0.068","N34.70522133","E137.52645828","45.2*","89"
"2023/11/22","20:18:00","0.051","N34.71513759","E137.48271551","64.9*","87"
"2023/11/22","20:19:00","0.021","N34.7255206","E137.43830784","62.2*","71"
"2023/11/22","20:20:00","0.036","N34.74297076","E137.3979927","64.2*","76"
"2023/11/22","20:21:00","0.026","N34.7744353","E137.37338017","48.4*","69"
"2023/11/22","20:22:00","0.023","N34.79461165","E137.33726018","48.2*","76"
"2023/11/22","20:23:00","0.034","N34.81313176","E137.2988964","45.9*","78"
"2023/11/22","20:24:00","0.017","N34.81802008","E137.25593823","65.3*","105"
"2023/11/22","20:25:00","0.018","N34.83778604","E137.21823772","66.1*","97"
"2023/11/22","20:27:00","0.050","N34.87908904","E137.14321894","52.5*","109"
"2023/11/22","20:28:00","0.015","N34.91136989","E137.11349318","50.3*","129"
"2023/11/22","20:29:00","0.048","N34.94317508","E137.08422125","60.4*","95"
"2023/11/22","20:30:00","0.050","N34.97515466","E137.05475029","56.4*","99"
"2023/11/22","20:31:00","0.115","N35.00308318","E137.01853832","52.3*","146"
"2023/11/22","20:32:00","0.071","N35.02900271","E136.97845056","54.3*","146"
"2023/11/22","20:33:00","0.080","N35.05930223","E136.9464698","53.8*","140"
"2023/11/22","20:34:00","0.046","N35.09696118","E136.92575556","46.5*","110"
"2023/11/22","20:35:00","0.048","N35.11798029","E136.89303818","45.3*","104"
"2023/11/22","20:36:00","0.027","N35.1435962","E136.88732611","46.5*","117"
"2023/11/22","20:37:00","0.061","N35.16161169","E136.88571293","52.4*","124"
"2023/11/22","20:38:00","0.054","N35.17027637","E136.88094581","47.9*","137"
"2023/11/22","20:39:00","0.024","N35.17164525","E136.87977804","68.5*","94"
"2023/11/22","20:40:00","0.009","N35.17178051","E136.88035255","69.6*","96"
"2023/11/22","20:41:00","0.090","N35.17539147","E136.8790628","44.9*","105"
"2023/11/22","20:42:00","0.042","N35.18927993","E136.86682932","46.8*","132"
"2023/11/22","20:43:00","0.058","N35.20855159","E136.84858021","41.0*","121"
"2023/11/22","20:44:00","0.051","N35.22597103","E136.81531386","46.2*","122"
"2023/11/22","20:45:00","0.074","N35.24610129","E136.7717451","53.8*","149"
"2023/11/22","20:46:00","0.034","N35.28244251","E136.74614001","54.1*","153"
"2023/11/22","20:47:00","0.053","N35.30392479","E136.70369973","46.9*","128"
"2023/11/22","20:48:00","0.035","N35.3330747","E136.66552711","47.0*","132"
"2023/11/22","20:49:00","0.050","N35.34673444","E136.61775285","45.8*","133"
"2023/11/22","20:50:00","0.048","N35.3495092","E136.56667178","50.8*","118"
"2023/11/22","20:51:00","0.089","N35.36489343","E136.52952346","66.0*","135"
"2023/11/22","20:52:00","0.071","N35.36419971","E136.48738548","121.3*","154"
"2023/11/22","20:53:00","0.046","N35.35900387","E136.44130128","166.7*","135"
"2023/11/22","20:54:00","0.101","N35.36373657","E136.39124276","189.5*","269"
"2023/11/22","20:55:00","0.052","N35.36079981","E136.34149327","178.7*","144"
"2023/11/22","20:56:00","0.052","N35.34085479","E136.29979541","139.4*","151"
"2023/11/22","20:57:00","0.013","N35.30190701","E136.28432705","125.6*","105"
"2023/11/22","20:58:00","0.019","N35.2611561","E136.27790961","148.7*","104"
"2023/11/22","20:59:00","0.094","N35.22337857","E136.2552956","156.6*","141"
"2023/11/22","21:00:00","0.074","N35.18964094","E136.22396771","142.6*","128"
"2023/11/22","21:01:00","0.086","N35.15352941","E136.19694967","152.8*","120"
"2023/11/22","21:02:00","0.071","N35.12923726","E136.15519917","145.3*","137"
"2023/11/22","21:03:00","0.046","N35.10923698","E136.10968828","144.2*","146"
"2023/11/22","21:04:00","0.036","N35.08996339","E136.06384476","134.4*","144"
"2023/11/22","21:05:00","0.050","N35.06341289","E136.02396296","141.9*","147"
"2023/11/22","21:06:00","0.059","N35.03078113","E135.99108865","145.1*","102"
"2023/11/22","21:07:00","0.053","N34.99711904","E135.96002653","151.0*","129"
"2023/11/22","21:08:00","0.046","N34.97011177","E135.92224138","156.1*","129"
"2023/11/22","21:09:00","0.050","N34.97331474","E135.88302739","144.8*","155"
"2023/11/22","21:10:00","0.054","N34.97331474","E135.88302739","144.8*","243"
"2023/11/22","21:11:00","0.097","N34.98223299","E135.79234833","100.5*","149"
"2023/11/22","21:12:00","0.066","N34.98511314","E135.76635576","87.6*","193"
"2023/11/22","21:13:00","0.043","N34.98445268","E135.75789093","73.6*","125"
"2023/11/22","21:14:00","0.087","N34.98445268","E135.75789093","73.6*","143"
"2023/11/22","21:15:00","0.041","N34.98450589","E135.75666847","72.9*","131"
"2023/11/22","21:16:00","0.056","N34.98465332","E135.74350001","71.1*","104"
"2023/11/22","21:17:00","0.060","N34.97212075","E135.71896538","71.2*","125"
"2023/11/22","21:18:00","0.066","N34.93662626","E135.71434475","73.3*","134"
"2023/11/22","21:19:00","0.039","N34.90279386","E135.69411705","61.2*","113"
"2023/11/22","21:20:00","0.047","N34.87132076","E135.66122927","62.4*","133"
"2023/11/22","21:21:00","0.061","N34.83674891","E135.63207371","52.8*","109"
"2023/11/22","21:22:00","0.015","N34.80179902","E135.60336277","48.6*","120"
"2023/11/22","21:23:00","0.033","N34.77239006","E135.56748366","46.7*","115"
"2023/11/22","21:24:00","0.073","N34.75109083","E135.54244793","54.2*","127"
"2023/11/22","21:25:00","0.014","N34.74377033","E135.51612356","48.1*","97"
"2023/11/22","21:26:00","0.093","N34.73553124","E135.50524919","50.8*","139"
"2023/11/22","21:27:00","0.065","N34.73313293","E135.49876166","51.2*","97"
"2023/11/22","21:28:00","0.027","N34.73313293","E135.49876166","51.2*","87"
"2023/11/22","21:29:00","0.041","N34.73313293","E135.49876166","51.2*","133"
